Waarnemingen

Advertentie
Mijn weer
Bierset/Liege, België (6478): temperatuur & dauwpunt: 22.09.2020 18:00:00 - 28.09.2020 18:00:00 (CEST)Bierset/Liege, België (6478): windsnelheid & windstoten: 22.09.2020 18:00:00 - 28.09.2020 18:00:00 (CEST)Bierset/Liege, België (6478): windrichting: 22.09.2020 18:00:00 - 28.09.2020 18:00:00 (CEST)Bierset/Liege, België (6478): luchtdruk: 22.09.2020 18:00:00 - 28.09.2020 18:00:00 (CEST)Bierset/Liege, België (6478): zicht: 22.09.2020 18:00:00 - 28.09.2020 18:00:00 (CEST)
Datum & Tijd tt [°C] td [°C] ff [km/u] ff [kn] fx [km/u] fx [kn] dd ppp [hPa] vv [km]
28.09.2020 18:00:00 10,0 9,0 16 9 - - Z - 2,1
28.09.2020 17:00:00 9,8 9,3 18 10 - - Z 1010,2 4,1
28.09.2020 16:00:00 9,6 9,0 21 11 40 21 Z 1010,2 3,7
28.09.2020 15:00:00 9,4 8,8 18 10 29 16 Z 1010,3 3,0
28.09.2020 14:00:00 9,8 8,7 22 12 - - Z 1010,3 10
28.09.2020 13:00:00 9,9 8,8 18 10 29 16 Z 1010,2 9
28.09.2020 12:00:00 10,4 8,9 13 7 25 14 Z 1010,1 8
28.09.2020 11:00:00 10,1 8,5 16 9 - - ZZW 1009,8 10
28.09.2020 10:00:00 9,9 8,6 15 8 25 14 ZZW 1009,7 10
28.09.2020 09:00:00 9,6 8,6 15 8 25 14 Z 1009,7 9
28.09.2020 08:00:00 9,9 8,9 15 8 - - ZZW 1009,3 6
28.09.2020 07:00:00 10,4 8,8 13 7 25 14 Z 1009,0 10
28.09.2020 06:00:00 10,4 8,9 8 4 14 8 Z 1008,9 9
28.09.2020 05:00:00 10,7 9,3 9 5 - - ZW 1008,7 9
28.09.2020 04:00:00 10,8 9,5 9 5 32 18 Z 1009,0 8
28.09.2020 03:00:00 10,6 9,5 8 4 22 12 Z 1008,9 9
28.09.2020 02:00:00 10,8 9,4 4 2 - - - 1008,8 10
28.09.2020 01:00:00 10,5 9,2 2 1 14 8 - 1008,8 10
28.09.2020 00:00:00 11,1 8,8 4 2 14 8 - 1008,6 10
27.09.2020 23:00:00 11,0 8,7 5 3 - - O 1008,2 10
27.09.2020 22:00:00 11,4 8,5 11 6 18 10 ONO 1007,6 10
27.09.2020 21:00:00 11,3 9,2 8 4 14 8 NNO 1007,5 10
27.09.2020 20:00:00 11,5 9,0 8 4 - - N 1007,1 10
27.09.2020 19:00:00 11,9 9,2 11 6 22 12 NNO 1006,4 10
27.09.2020 18:00:00 12,4 8,9 13 7 25 14 NNO 1005,6 10
27.09.2020 17:00:00 13,1 8,8 15 8 - - NO 1004,8 10
27.09.2020 16:00:00 13,0 10,0 22 12 32 18 NNO 1004,0 10
27.09.2020 15:00:00 12,2 9,8 21 11 32 18 NNO 1003,7 10
27.09.2020 14:00:00 12,8 10,2 18 10 - - N 1002,7 10
27.09.2020 13:00:00 13,0 10,9 21 11 29 16 NNO 1001,7 10
27.09.2020 12:00:00 12,1 11,4 16 9 29 16 NNO 1000,7 8
27.09.2020 11:00:00 11,4 10,6 21 11 - - NNO 999,6 7
27.09.2020 10:00:00 11,9 10,6 18 10 29 16 NNO 998,1 10
27.09.2020 09:00:00 12,4 11,5 13 7 29 16 NNO 996,4 10
27.09.2020 08:00:00 12,6 11,8 18 10 - - NO 995,1 6
27.09.2020 07:00:00 12,7 12,3 18 10 29 16 N 993,8 5
27.09.2020 06:00:00 11,9 11,6 15 8 29 16 NNW 993,5 3,6
27.09.2020 05:00:00 11,4 11,0 18 10 - - NW 994,0 3,5
27.09.2020 04:00:00 10,9 10,4 24 13 40 21 WNW 995,1 3,0
27.09.2020 03:00:00 10,6 10,1 18 10 32 18 WNW 997,3 7
27.09.2020 02:00:00 10,6 10,2 16 9 - - NW 998,9 6
27.09.2020 01:00:00 10,6 10,0 15 8 32 18 NW 999,9 6
27.09.2020 00:00:00 10,1 9,6 16 9 22 12 WZW 1000,4 4,5
26.09.2020 23:00:00 9,9 9,3 11 6 - - W 1001,5 7
26.09.2020 22:00:00 10,2 9,0 16 9 29 16 W 1001,5 5
26.09.2020 21:00:00 10,7 8,6 11 6 25 14 WNW 1001,7 10
26.09.2020 20:00:00 10,7 9,4 15 8 - - W 1001,5 10
26.09.2020 19:00:00 11,4 9,3 16 9 29 16 WNW 1001,2 10
26.09.2020 18:00:00 11,6 8,9 16 9 36 19 W 1001,1 10
26.09.2020 17:00:00 12,2 9,0 21 11 - - W 1000,8 10
26.09.2020 16:00:00 12,2 9,1 22 12 32 18 W 1000,6 10
26.09.2020 15:00:00 12,0 8,0 24 13 40 21 W 1000,8 10
26.09.2020 14:00:00 11,6 8,6 22 12 - - W 1000,6 10
26.09.2020 13:00:00 11,7 9,2 16 9 32 18 WNW 1000,1 10
26.09.2020 12:00:00 11,2 7,8 15 8 29 16 WNW 999,8 10
26.09.2020 11:00:00 10,3 8,7 15 8 - - NW 999,7 10
26.09.2020 10:00:00 9,8 8,9 21 11 32 18 WNW 999,0 10
26.09.2020 09:00:00 9,6 8,9 18 10 40 21 WNW 998,3 10
26.09.2020 08:00:00 9,5 8,9 24 13 - - WNW 997,6 10
26.09.2020 07:00:00 9,5 8,9 24 13 40 21 WNW 997,0 10
26.09.2020 06:00:00 9,6 9,1 28 15 47 25 W 996,5 10
26.09.2020 05:00:00 9,2 8,5 29 16 - - W 996,1 8
26.09.2020 04:00:00 8,7 8,1 41 22 65 35 WZW 995,3 6
26.09.2020 03:00:00 8,3 7,7 44 24 61 33 WZW 996,1 3,0
26.09.2020 02:00:00 8,3 7,2 42 23 - - WZW 996,8 6
26.09.2020 01:00:00 8,5 7,5 35 19 61 33 WZW 997,8 5
26.09.2020 00:00:00 8,7 8,0 35 19 50 27 W 998,3 5
25.09.2020 23:00:00 8,5 7,9 34 18 - - WZW 998,3 3,2
25.09.2020 22:00:00 8,7 7,7 37 20 58 31 WZW 998,0 7
25.09.2020 21:00:00 8,9 7,9 34 18 47 25 WZW 998,6 10
25.09.2020 20:00:00 9,3 8,2 29 16 - - WZW 999,0 10
25.09.2020 19:00:00 9,6 8,3 28 15 43 23 WZW 999,0 10
25.09.2020 18:00:00 9,8 8,7 18 10 32 18 W 999,2 4,0
25.09.2020 17:00:00 10,6 7,5 16 9 - - WZW 998,3 10
25.09.2020 16:00:00 11,2 8,6 18 10 32 18 WZW 997,9 10
25.09.2020 15:00:00 9,7 7,6 18 10 32 18 W 997,3 4,0
25.09.2020 14:00:00 12,1 7,6 18 10 - - ZW 996,7 10
25.09.2020 13:00:00 10,8 8,2 24 13 32 18 ZZW 997,2 10
25.09.2020 12:00:00 9,9 8,3 26 14 40 21 ZZW 997,4 8
25.09.2020 11:00:00 9,4 7,9 22 12 - - ZZW 997,4 6
25.09.2020 10:00:00 9,7 6,7 22 12 36 19 ZZW 996,8 10
25.09.2020 09:00:00 9,1 6,2 21 11 32 18 Z 996,9 10
25.09.2020 08:00:00 8,6 6,0 21 11 - - ZZW 997,1 10
25.09.2020 07:00:00 8,3 6,1 21 11 32 18 Z 997,5 10
25.09.2020 06:00:00 8,4 6,1 21 11 32 18 ZZW 997,4 10
25.09.2020 05:00:00 9,0 6,8 21 11 - - ZZW 997,5 10
25.09.2020 04:00:00 9,6 7,2 28 15 43 23 ZW 997,6 10
25.09.2020 03:00:00 10,9 9,3 22 12 36 19 ZW 997,1 10
25.09.2020 02:00:00 11,2 9,9 21 11 - - ZZW 997,4 10
25.09.2020 01:00:00 11,7 10,6 22 12 32 18 ZZW 997,2 10
25.09.2020 00:00:00 12,2 11,0 22 12 36 19 ZZW 997,6 7
24.09.2020 23:00:00 13,0 11,5 13 7 - - Z 997,7 10
24.09.2020 22:00:00 13,0 11,5 16 9 29 16 ZZO 998,2 10
24.09.2020 21:00:00 13,2 11,5 16 9 29 16 Z 999,1 6
24.09.2020 20:00:00 15,8 7,0 15 8 - - Z 999,1 10
24.09.2020 19:00:00 16,9 6,7 15 8 36 19 Z 999,6 10
24.09.2020 18:00:00 17,2 6,0 21 11 40 21 Z 1000,7 10
24.09.2020 17:00:00 17,6 4,9 26 14 - - ZZW 1001,4 10
24.09.2020 16:00:00 17,1 5,0 28 15 50 27 Z 1002,2 10
24.09.2020 15:00:00 17,4 5,7 34 18 50 27 ZZW 1003,0 10
24.09.2020 14:00:00 16,7 5,6 34 18 - - ZZW 1003,9 10
24.09.2020 13:00:00 16,1 7,1 26 14 54 29 Z 1004,3 10
24.09.2020 12:00:00 15,4 7,3 37 20 50 27 ZZW 1004,8 10
24.09.2020 11:00:00 13,7 8,3 34 18 - - ZZW 1005,3 10
24.09.2020 10:00:00 12,0 8,3 28 15 40 21 ZZW 1005,4 10
24.09.2020 09:00:00 11,1 8,8 26 14 36 19 ZZW 1005,5 10
24.09.2020 08:00:00 10,7 9,3 21 11 - - ZZW 1005,4 10
24.09.2020 07:00:00 10,9 9,2 26 14 40 21 ZW 1005,0 10
24.09.2020 06:00:00 11,4 9,8 24 13 40 21 ZW 1004,4 10
24.09.2020 05:00:00 11,8 10,2 22 12 - - ZW 1003,8 10
24.09.2020 04:00:00 11,9 10,7 18 10 40 21 ZW 1003,1 10
24.09.2020 03:00:00 12,9 10,6 26 14 47 25 W 1002,2 10
24.09.2020 02:00:00 15,5 14,2 22 12 - - ZZW 1000,8 10
24.09.2020 01:00:00 15,1 14,2 24 13 36 19 ZZW 1001,0 10
24.09.2020 00:00:00 16,0 13,9 16 9 36 19 ZZW 1000,8 10
23.09.2020 23:00:00 18,9 11,6 18 10 - - Z 1000,8 10
23.09.2020 22:00:00 18,7 11,9 16 9 29 16 Z 1001,6 10
23.09.2020 21:00:00 18,9 11,7 16 9 40 21 Z 1002,3 10
23.09.2020 20:00:00 19,6 11,0 16 9 - - Z 1002,7 10
23.09.2020 19:00:00 20,1 10,8 21 11 40 21 ZZW 1003,0 10
23.09.2020 18:00:00 20,9 10,8 26 14 40 21 ZW 1003,7 10
23.09.2020 17:00:00 21,0 10,8 29 16 - - ZW 1003,9 10
23.09.2020 16:00:00 22,0 10,2 29 16 43 23 ZW 1004,1 10
23.09.2020 15:00:00 22,0 10,3 31 17 54 29 ZW 1004,6 10
23.09.2020 14:00:00 21,8 11,2 31 17 - - ZW 1005,1 10
23.09.2020 13:00:00 21,0 11,7 31 17 43 23 ZZW 1005,7 10
23.09.2020 12:00:00 19,9 11,9 24 13 47 25 ZZW 1006,2 10
23.09.2020 11:00:00 18,0 11,0 18 10 - - ZZW 1006,6 10
23.09.2020 10:00:00 15,7 7,9 15 8 32 18 Z 1006,8 10
23.09.2020 09:00:00 14,1 7,9 16 9 32 18 Z 1007,0 10
23.09.2020 08:00:00 13,1 7,7 13 7 - - ZZO 1006,9 10
23.09.2020 07:00:00 13,3 7,5 8 4 29 16 Z 1007,0 10
23.09.2020 06:00:00 13,9 7,3 9 5 22 12 ZZO 1006,9 10
23.09.2020 05:00:00 14,2 7,9 11 6 - - Z 1007,2 10
23.09.2020 04:00:00 14,9 8,0 9 5 25 14 ZZW 1007,4 10
23.09.2020 03:00:00 15,3 8,0 11 6 22 12 Z 1007,6 12
23.09.2020 02:00:00 15,5 9,1 8 4 - - ZZO 1007,5 10
23.09.2020 01:00:00 16,8 9,1 8 4 18 10 ZZO 1007,6 10
23.09.2020 00:00:00 17,2 8,0 2 1 11 6 - 1007,8 10
22.09.2020 23:00:00 15,2 9,1 8 4 - - W 1008,3 10
22.09.2020 22:00:00 16,6 8,6 2 1 18 10 - 1008,0 10
22.09.2020 21:00:00 19,4 9,1 5 3 18 10 OZO 1007,7 10
22.09.2020 20:00:00 20,3 8,9 4 2 - - - 1007,6 10
22.09.2020 19:00:00 21,9 9,2 8 4 14 8 N 1007,5 10
22.09.2020 18:00:00 23,3 8,8 8 4 14 8 NW 1007,7 10

tt = temperatuur
td = dauwpunt
ff = windsnelheid
fx = windstoten
dd = windrichting
ppp = luchtdruk
vv = zicht

Weerstations in de omgeving